Location: Moscow
(55.7500°N, 37.5830°E)
Time: 05:53:08
(UTC+03:00)

Vanguard 1 - Pass Details

Date: 07 December 2021
Orbit: 652 x 3830 km, 34.2° (Epoch: 21 January)

Event Time Altitude Azimuth Distance (km) Brightness Sun altitude
Rises 02:19:17 0° 252° (WSW) 7,651 - -50.3°
Reaches altitude 10° 02:24:49 10° 245° (WSW) 6,819 - -49.8°
Maximum altitude 02:44:46 39° 188° (S) 4,736 - -47.6°
Exits shadow 02:49:46 35° 165° (SSE) 4,708 13.2 -47.0°
Drops below altitude 10° 03:01:17 10° 129° (SE) 5,696 14.1 -45.7°
Sets 03:05:23 0° 121° (ESE) 6,332 14.5 -45.2°
